User: anonymous   Login
Location: Kosice
(0.0000°N, 21.2500°E)
Time: 09:54:49
(UTC+02:00)
Language:

Cosmos 1655 Rocket - Orbit

View from above orbital plane
View from above orbital plane
View from above satellite
View from above satellite

Ground track
Ground track

The orbit data is extracted from the following two-line orbital elements,

1 15752U 85041B   21101.83518787  .00000030  00000-0  15752-4 0  9997
2 15752  82.9534 357.7790 0023395 209.1197 150.8655 13.73124337797009
Epoch (UTC): 11 April 2021 20:02:40
Eccentricity: 0.0023395
inclination: 82.9534°
perigee height: 971 km
apogee height: 1005 km
right ascension of ascending node: 357.7790°
argument of perigee: 209.1197°
revolutions per day: 13.73124337
mean anomaly at epoch: 150.8655°
orbit number at epoch: 79700

The dashed part of the orbit path shows where the satellite is in the earth's shadow,  

DLR